Starlink 32861

operational
NORAD ID: 62870 Int'l Des: 2025-022 Owner: SPXS Country: US Constellation: starlink
LEOCIRCULAR

Über Starlink 32861

Beschreibung wird geladen...

Live-Position

3D-Globus wird geladen...

Nächste Überflüge

Höhenverlauf

Altitude vs Time

uPlot chart will show altitude changes over time

Zweizeiliger Elementsatz

1 62870U 25022S 25308.41347771 -.00046126 00000-0 -15587-2 0 9995
2 62870 53.1594 351.2370 0001082 52.0183 308.0915 15.30121320 42722
Epoch: 4. Nov. 2025 • Age: 12 hours

Aktueller Status

Höhe 476.0 km
Geschwindigkeit 7.63 km/s
Subsatellitenpunkt 10.72°N, 152.16°E
Startdatum 2. Feb. 2025
Alter 0.7 years
Typ internet

Technische Details

Klassifizierung Payload
Masse 730.00 kg
Trockenmasse 700.00 kg
Gesamtmasse 730.00 kg
Länge 0.30 m
Durchmesser 4.10 m
Spannweite 29.00 m
Form Box + pan
Hersteller SPXS
Bus-Typ Starlink V2M
Phasenstatus In Orbit
Besitzer/Staat SPXS/US

Große Konstellationen

Loading constellations...